Track STARLINK-4739 now! 10-day predictions STARLINK-4739 is classified as:
1 53792U 22111V 24325.16307855 -.00000481 00000-0 -12102-4 0 9999 2 53792 53.2184 244.7030 0001585 96.1252 263.9921 15.08839571121244